[[{"header":{"parameterUnit":"m.s-1","parameterCategory":2,"la1":30.2992,"la2":30.254,"lo1":-89.0895,"lo2":-89.0443,"dy":0.0025,"dx":0.0025,"nx":19,"ny":19,"refTime":"2026-05-04T03:00:00:Z","depth":"0","parameterNumber":2,"parameterNumberName":"U-component_of_CURRENTS"},"data":[0,0,0,-0.1435,-0.1438,-0.1607,-0.1608,-0.1806,-0.1807,0,0,0,0,0,0,0,0,0,0,0,-0.1362,-0.1362,-0.1435,-0.1438,-0.1607,-0.1608,-0.1806,-0.1807,0,0,0,0,0,0,0,0,0,0,0,-0.1361,-0.1362,-0.1362,-0.1439,-0.1606,-0.1608,-0.1805,-0.1688,0,0,0,0,0,0,0,0,0,0,-0.1528,-0.1477,-0.1362,-0.1362,-0.1439,-0.1606,-0.1608,-0.1683,-0.1695,-0.1717,0,-0.1718,0,-0.1764,-0.1818,-0.1819,0,0,0,-0.1461,-0.1466,-0.1488,-0.1362,-0.1441,-0.1606,-0.1537,-0.169,-0.1704,-0.1733,-0.1722,-0.173,-0.1767,-0.1819,-0.182,-0.1993,-0.1994,0,0,-0.1452,-0.1425,-0.1477,-0.1495,-0.1452,-0.1532,-0.1542,-0.1699,-0.1713,-0.1722,-0.1735,-0.177,-0.182,-0.1821,-0.1993,-0.1993,0,0,0,-0.141,-0.1418,-0.1438,-0.1486,-0.1517,-0.1536,-0.1548,-0.1707,-0.1705,-0.1738,-0.1773,-0.1821,-0.1823,-0.1992,-0.1993,-0.1979,0,0,0,-0.1405,-0.1392,-0.1432,-0.1423,-0.1513,-0.1623,-0.1553,-0.1694,-0.1714,-0.1772,-0.1821,-0.1825,-0.1991,-0.1992,-0.1977,-0.1946,0,0,0,-0.136,-0.1389,-0.1392,-0.142,-0.1483,-0.1621,-0.1632,-0.17,-0.1735,-0.1819,-0.1825,-0.1991,-0.1992,-0.1976,-0.1946,-0.1972,0,0,0,-0.135,-0.1373,-0.1391,-0.1444,-0.148,-0.1603,-0.1631,-0.1731,-0.1801,-0.1822,-0.1991,-0.1993,-0.1976,-0.1945,-0.1971,-0.1896,-0.1893,0,0,-0.1377,-0.1376,-0.141,-0.1431,-0.1523,-0.1583,-0.1713,-0.1798,-0.1836,-0.194,-0.1945,-0.1978,-0.1945,-0.1972,-0.1992,-0.1986,0,0,0,-0.142,-0.1424,-0.1463,-0.1518,-0.1608,-0.1697,-0.1796,-0.1843,-0.1936,-0.1882,-0.2016,-0.1996,-0.2013,-0.1968,-0.1964,-0.1825,-0.2,-0.2,-0.2,-0.1378,-0.1436,-0.1497,-0.1574,-0.1654,-0.1786,-0.1863,-0.1944,-0.1977,-0.2013,-0.2014,-0.206,-0.2013,-0.2009,-0.1868,-0.2061,-0.2061,-0.2061,-0.2061,-0.1387,-0.1419,-0.1497,-0.1571,-0.1669,-0.1769,-0.192,-0.1956,-0.2053,-0.2057,-0.2075,-0.199,-0.2003,-0.1855,-0.2061,-0.2061,-0.2061,-0.2061,-0.2061,-0.1338,-0.1369,-0.1414,-0.1516,-0.1605,-0.1735,-0.1813,-0.1918,-0.2015,-0.2043,-0.2009,-0.2008,-0.1851,-0.2054,-0.2054,-0.2054,-0.2054,-0.2054,-0.2054,-0.1272,-0.1329,-0.1363,-0.1464,-0.1501,-0.1583,-0.1745,-0.1817,-0.1921,-0.198,-0.198,-0.1849,-0.2058,-0.2027,-0.2054,-0.2054,-0.2054,-0.2054,-0.2054,-0.1232,-0.1252,-0.1295,-0.1325,-0.1408,-0.1414,-0.1577,-0.1707,-0.1815,-0.1849,-0.1756,-0.1968,-0.1963,-0.1966,-0.1935,-0.1937,-0.1937,-0.1937,-0.1937,-0.1181,-0.1206,-0.1234,-0.1252,-0.1282,-0.1335,-0.1354,-0.1497,-0.1605,-0.1595,-0.163,-0.1588,-0.1599,-0.1572,-0.1584,-0.1545,-0.1447,-0.1447,-0.1446,-0.1151,-0.1169,-0.1159,-0.1197,-0.121,-0.1224,-0.1198,-0.1249,-0.1361,-0.1414,-0.145,-0.1471,-0.1401,-0.143,-0.1382,-0.141,-0.1347,0,0]},{"header":{"parameterUnit":"m.s-1","parameterCategory":2,"la1":30.2992,"la2":30.254,"lo1":-89.0895,"lo2":-89.0443,"dy":0.0025,"dx":0.0025,"nx":19,"ny":19,"refTime":"2026-05-04T03:00:00:Z","depth":"0","parameterNumber":3,"parameterNumberName":"V-component_of_CURRENTS"},"data":[0,0,0,-0.0049,-0.005,-0.0112,-0.0112,-0.0197,-0.0197,0,0,0,0,0,0,0,0,0,0,0,-0.0028,-0.0028,-0.0049,-0.005,-0.0112,-0.0112,-0.0197,-0.0197,0,0,0,0,0,0,0,0,0,0,0,-0.0028,-0.0028,-0.0028,-0.005,-0.0111,-0.0112,-0.0197,-0.0154,0,0,0,0,0,0,0,0,0,0,-0.0096,-0.011,-0.0028,-0.0028,-0.005,-0.0111,-0.0112,-0.0152,-0.0157,-0.0163,0,-0.0157,0,-0.0169,-0.0201,-0.0201,0,0,0,-0.0072,-0.0106,-0.0075,-0.0028,-0.005,-0.0111,-0.009,-0.0155,-0.016,-0.0169,-0.0159,-0.0162,-0.017,-0.0201,-0.0202,-0.0288,-0.0288,0,0,-0.0069,-0.0091,-0.0071,-0.0077,-0.0046,-0.0088,-0.0092,-0.0158,-0.0183,-0.0159,-0.0164,-0.0172,-0.0202,-0.0202,-0.0287,-0.0288,0,0,0,-0.0044,-0.0089,-0.0058,-0.0074,-0.0079,-0.0089,-0.0094,-0.0181,-0.0156,-0.0165,-0.0173,-0.0202,-0.0203,-0.0287,-0.0288,-0.0379,0,0,0,-0.0043,-0.0071,-0.0056,-0.0077,-0.0077,-0.0141,-0.0116,-0.0152,-0.016,-0.0172,-0.0202,-0.0203,-0.0286,-0.0287,-0.0375,-0.0427,0,0,0,-0.0029,-0.0072,-0.0061,-0.0077,-0.0087,-0.0139,-0.0122,-0.0155,-0.0164,-0.0201,-0.0203,-0.0286,-0.0287,-0.0372,-0.0421,-0.0472,0,0,0,-0.0074,-0.0126,-0.0062,-0.0141,-0.0086,-0.0169,-0.0122,-0.0206,-0.0249,-0.0202,-0.0286,-0.0287,-0.0371,-0.0417,-0.0469,-0.0466,-0.0484,0,0,-0.0173,-0.014,-0.0187,-0.0131,-0.0213,-0.0164,-0.028,-0.0302,-0.0262,-0.0267,-0.0269,-0.0376,-0.042,-0.0472,-0.0538,-0.0554,0,0,0,-0.0242,-0.0256,-0.0281,-0.0304,-0.0325,-0.0355,-0.0363,-0.0355,-0.0364,-0.0285,-0.0376,-0.0401,-0.0431,-0.042,-0.0433,-0.0094,-0.0293,-0.0293,-0.0293,-0.0395,-0.0378,-0.0453,-0.0432,-0.0479,-0.0497,-0.0528,-0.0503,-0.0455,-0.0461,-0.0475,-0.0578,-0.0568,-0.0577,-0.0227,-0.0467,-0.0468,-0.0468,-0.0468,-0.0519,-0.0555,-0.0536,-0.0589,-0.0586,-0.0652,-0.0659,-0.0629,-0.0641,-0.0566,-0.059,-0.0517,-0.0597,-0.0218,-0.0474,-0.0473,-0.0472,-0.0472,-0.0471,-0.06,-0.0614,-0.0616,-0.0659,-0.0715,-0.0728,-0.0804,-0.0776,-0.0727,-0.0757,-0.0717,-0.0715,-0.0382,-0.0756,-0.0757,-0.0757,-0.0758,-0.0758,-0.0759,-0.068,-0.0682,-0.0707,-0.074,-0.0771,-0.0833,-0.0885,-0.0923,-0.0902,-0.0828,-0.0827,-0.0372,-0.0665,-0.0654,-0.0766,-0.0765,-0.0764,-0.0763,-0.0762,-0.0775,-0.0748,-0.0794,-0.0815,-0.0893,-0.1006,-0.104,-0.1113,-0.111,-0.1111,-0.0485,-0.0859,-0.083,-0.0817,-0.0809,-0.0955,-0.0955,-0.0955,-0.0955,-0.0823,-0.082,-0.0865,-0.0916,-0.1008,-0.1093,-0.1282,-0.1268,-0.0861,-0.0514,-0.037,-0.024,-0.0247,-0.0174,-0.0176,-0.0149,-0.0125,-0.0123,-0.0121,-0.0865,-0.0873,-0.0919,-0.0958,-0.1059,-0.1208,-0.1396,-0.1281,-0.0478,-0.0048,0.0105,0.007,0.0304,0.0264,0.0415,0.0385,0.0439,0,0]}],[{"header":{"parameterUnit":"m.s-1","parameterCategory":2,"la1":30.2992,"la2":30.254,"lo1":-89.0895,"lo2":-89.0443,"dy":0.0025,"dx":0.0025,"nx":19,"ny":19,"refTime":"2026-05-04T03:00:00:Z","depth":"2","parameterNumber":2,"parameterNumberName":"U-component_of_CURRENTS"},"data":[0,0,0,-0.1208,-0.1208,-0.1236,-0.1237,-0.1392,-0.1393,0,0,0,0,0,0,0,0,0,0,0,-0.1231,-0.1231,-0.1208,-0.1208,-0.1236,-0.1237,-0.1392,-0.1393,0,0,0,0,0,0,0,0,0,0,0,-0.1231,-0.1231,-0.1231,-0.1207,-0.1236,-0.1237,-0.1391,-0.135,0,0,0,0,0,0,0,0,0,0,-0.1312,-0.1314,-0.1231,-0.1231,-0.1207,-0.1236,-0.1237,-0.1348,-0.1353,-0.1399,0,-0.1396,0,-0.1368,-0.1402,-0.1403,0,0,0,-0.125,-0.1309,-0.129,-0.1231,-0.1207,-0.1236,-0.1235,-0.135,-0.1356,-0.1407,-0.1398,-0.1402,-0.1371,-0.1403,-0.1404,-0.1636,-0.1638,0,0,-0.1248,-0.1268,-0.1285,-0.1293,-0.1207,-0.1234,-0.1236,-0.1353,-0.1375,-0.1398,-0.1404,-0.1373,-0.1404,-0.1405,-0.1635,-0.1637,0,0,0,-0.1215,-0.1267,-0.1244,-0.1289,-0.1267,-0.1234,-0.1236,-0.1371,-0.1355,-0.1405,-0.1375,-0.1405,-0.1407,-0.1633,-0.1636,-0.1627,0,0,0,-0.1216,-0.1243,-0.1243,-0.126,-0.1264,-0.1304,-0.1252,-0.1349,-0.1359,-0.1374,-0.1405,-0.1408,-0.1632,-0.1634,-0.1624,-0.1624,0,0,0,-0.123,-0.1245,-0.124,-0.126,-0.1246,-0.1301,-0.1295,-0.1351,-0.1339,-0.1403,-0.1408,-0.163,-0.1634,-0.1621,-0.162,-0.1695,0,0,0,-0.1263,-0.1279,-0.1241,-0.1267,-0.1245,-0.1288,-0.1293,-0.1353,-0.1411,-0.1406,-0.1632,-0.1635,-0.162,-0.1618,-0.1691,-0.1583,-0.1589,0,0,-0.1299,-0.1285,-0.13,-0.1265,-0.1285,-0.1287,-0.1377,-0.1447,-0.1489,-0.1604,-0.1609,-0.1625,-0.162,-0.1694,-0.1792,-0.1791,0,0,0,-0.1322,-0.1315,-0.1325,-0.1323,-0.1345,-0.1396,-0.1441,-0.1507,-0.1627,-0.1528,-0.1702,-0.1701,-0.1746,-0.1676,-0.1678,-0.1653,-0.1652,-0.1652,-0.1651,-0.1331,-0.1337,-0.1359,-0.1366,-0.1411,-0.1489,-0.1576,-0.1681,-0.1683,-0.1763,-0.1749,-0.1878,-0.1806,-0.1806,-0.1813,-0.1813,-0.1813,-0.1813,-0.1813,-0.1327,-0.1317,-0.1359,-0.138,-0.1445,-0.1516,-0.1687,-0.1733,-0.1886,-0.186,-0.1904,-0.1741,-0.1806,-0.1814,-0.1814,-0.1814,-0.1814,-0.1814,-0.1814,-0.1273,-0.1277,-0.13,-0.1349,-0.142,-0.1516,-0.1641,-0.1765,-0.1885,-0.194,-0.1884,-0.1882,-0.1847,-0.1951,-0.1951,-0.1952,-0.1952,-0.1952,-0.1952,-0.1204,-0.1235,-0.1254,-0.1317,-0.1337,-0.142,-0.1613,-0.1721,-0.1844,-0.1898,-0.1898,-0.1926,-0.1921,-0.186,-0.1958,-0.1957,-0.1956,-0.1956,-0.1955,-0.112,-0.116,-0.1179,-0.1203,-0.1264,-0.1303,-0.1488,-0.1672,-0.1815,-0.1869,-0.1903,-0.1902,-0.1902,-0.19,-0.1841,-0.193,-0.193,-0.193,-0.193,-0.1061,-0.1087,-0.111,-0.1125,-0.1162,-0.1243,-0.1346,-0.1449,-0.1616,-0.1573,-0.1587,-0.1485,-0.1496,-0.1468,-0.1476,-0.1406,-0.1381,-0.138,-0.1378,-0.101,-0.1033,-0.1022,-0.1063,-0.1095,-0.1148,-0.1232,-0.1211,-0.1134,-0.1349,-0.1417,-0.1907,-0.1795,-0.1797,-0.1784,-0.1784,-0.1685,0,0]},{"header":{"parameterUnit":"m.s-1","parameterCategory":2,"la1":30.2992,"la2":30.254,"lo1":-89.0895,"lo2":-89.0443,"dy":0.0025,"dx":0.0025,"nx":19,"ny":19,"refTime":"2026-05-04T03:00:00:Z","depth":"2","parameterNumber":3,"parameterNumberName":"V-component_of_CURRENTS"},"data":[0,0,0,0.0151,0.0155,0.0302,0.0302,0.0408,0.0409,0,0,0,0,0,0,0,0,0,0,0,0.007,0.0071,0.0151,0.0155,0.0302,0.0302,0.0408,0.0409,0,0,0,0,0,0,0,0,0,0,0,0.007,0.0071,0.0071,0.0156,0.0301,0.0302,0.0408,0.0316,0,0,0,0,0,0,0,0,0,0,0.0182,0.0104,0.0071,0.0071,0.0156,0.0301,0.0302,0.0312,0.0321,0.032,0,0.0329,0,0.0387,0.0415,0.0415,0,0,0,0.0148,0.0096,0.016,0.0071,0.0158,0.0301,0.0233,0.0318,0.0328,0.0332,0.0332,0.0337,0.0388,0.0415,0.0416,0.0395,0.0394,0,0,0.014,0.0078,0.0153,0.0166,0.0178,0.0229,0.0238,0.0325,0.0311,0.0332,0.0341,0.039,0.0416,0.0416,0.0396,0.0394,0,0,0,0.0121,0.0071,0.0134,0.016,0.0202,0.0233,0.0244,0.0307,0.0334,0.0343,0.0391,0.0416,0.0417,0.0397,0.0395,0.0265,0,0,0,0.0116,0.0063,0.013,0.0092,0.0201,0.0265,0.0223,0.0327,0.034,0.0391,0.0416,0.0418,0.0398,0.0396,0.0271,0.0208,0,0,0,0.0067,0.0058,0.0074,0.0089,0.0163,0.0266,0.0297,0.0332,0.037,0.0415,0.0418,0.0398,0.0396,0.0276,0.0217,0.0133,0,0,0,0.0,0.0009,0.0071,0.0091,0.0161,0.0224,0.0298,0.0325,0.0351,0.0417,0.0397,0.0395,0.0277,0.0223,0.0139,0.0231,0.0211,0,0,-0.0019,0.0004,0.0021,0.0083,0.0118,0.0204,0.0205,0.0263,0.0319,0.0365,0.0365,0.0269,0.0218,0.0134,0.0109,0.0094,0,0,0,-0.0003,0.0002,0.0024,0.0059,0.0122,0.013,0.0209,0.022,0.023,0.0332,0.0263,0.0234,0.0186,0.0254,0.024,0.0385,0.0386,0.0386,0.0386,-0.0123,-0.0061,-0.0057,0.0008,0.0024,0.0069,0.006,0.0084,0.0162,0.0123,0.0123,-0.0035,0.0035,0.0026,0.0123,0.0122,0.0122,0.0121,0.0121,-0.0151,-0.0134,-0.0121,-0.0095,-0.0095,-0.0106,-0.0087,-0.0067,-0.0098,-0.0008,-0.0049,0.0108,0.0005,0.0111,0.0113,0.0114,0.0115,0.0116,0.0116,-0.0192,-0.0181,-0.0179,-0.019,-0.0248,-0.0229,-0.0307,-0.0272,-0.0231,-0.0275,-0.0177,-0.0173,-0.0116,-0.0292,-0.0293,-0.0294,-0.0294,-0.0295,-0.0295,-0.0232,-0.0227,-0.0273,-0.0289,-0.0346,-0.0409,-0.0441,-0.0465,-0.0409,-0.0321,-0.0319,-0.0175,-0.0161,-0.0139,-0.0306,-0.0304,-0.0302,-0.0301,-0.0301,-0.0243,-0.0282,-0.0333,-0.0395,-0.051,-0.0601,-0.0615,-0.0612,-0.0611,-0.0578,-0.0338,-0.0334,-0.0283,-0.0268,-0.0248,-0.0433,-0.0433,-0.0433,-0.0433,-0.0297,-0.0301,-0.0421,-0.0523,-0.0632,-0.0696,-0.0769,-0.0598,-0.0437,-0.0207,-0.0216,-0.0079,-0.0079,-0.0007,0.0001,0.0031,-0.0082,-0.0081,-0.008,-0.035,-0.0375,-0.0477,-0.0563,-0.0694,-0.0792,-0.0805,-0.0502,-0.0044,-0.0062,-0.0111,-0.0418,-0.0236,-0.0229,-0.0126,-0.011,-0.0065,0,0]}],[{"header":{"parameterUnit":"m.s-1","parameterCategory":2,"la1":30.2992,"la2":30.254,"lo1":-89.0895,"lo2":-89.0443,"dy":0.0025,"dx":0.0025,"nx":19,"ny":19,"refTime":"2026-05-04T03:00:00:Z","depth":"4","parameterNumber":2,"parameterNumberName":"U-component_of_CURRENTS"},"data":[0,0,0,-0.091,-0.0911,-0.0943,-0.0943,-0.0887,-0.0886,0,0,0,0,0,0,0,0,0,0,0,-0.0903,-0.0904,-0.091,-0.0911,-0.0943,-0.0943,-0.0887,-0.0886,0,0,0,0,0,0,0,0,0,0,0,-0.0903,-0.0904,-0.0905,-0.0912,-0.0943,-0.0943,-0.0887,-0.0882,0,0,0,0,0,0,0,0,0,0,-0.0861,-0.0846,-0.0904,-0.0905,-0.0912,-0.0943,-0.0943,-0.0883,-0.0882,-0.0851,0,-0.0879,0,-0.0887,-0.0882,-0.0882,0,0,0,-0.0891,-0.0846,-0.0889,-0.0905,-0.0913,-0.0943,-0.0923,-0.0883,-0.0882,-0.085,-0.0878,-0.0877,-0.0886,-0.0882,-0.0881,-0.0853,-0.0853,0,0,-0.0889,-0.0867,-0.089,-0.089,-0.0949,-0.0922,-0.0924,-0.0884,-0.0872,-0.0878,-0.0876,-0.0885,-0.0881,-0.0881,-0.0853,-0.0853,0,0,0,-0.0898,-0.0865,-0.091,-0.0892,-0.0909,-0.0924,-0.0926,-0.0873,-0.0899,-0.0875,-0.0884,-0.0881,-0.088,-0.0853,-0.0853,-0.093,0,0,0,-0.0896,-0.0873,-0.091,-0.0891,-0.0911,-0.0897,-0.0916,-0.0902,-0.0898,-0.0884,-0.0881,-0.0879,-0.0853,-0.0853,-0.0927,-0.0907,0,0,0,-0.0897,-0.0871,-0.0893,-0.0891,-0.0918,-0.0899,-0.092,-0.0902,-0.0903,-0.0882,-0.0879,-0.0853,-0.0853,-0.0925,-0.0905,-0.0965,0,0,0,-0.0847,-0.0863,-0.0892,-0.0901,-0.0918,-0.0933,-0.092,-0.0911,-0.0894,-0.088,-0.0853,-0.0853,-0.0924,-0.0903,-0.0963,-0.078,0,0,0,-0.0837,-0.086,-0.0866,-0.0895,-0.0914,-0.0926,-0.0918,-0.0897,-0.0888,-0.0855,-0.0855,-0.0928,-0.0905,-0.0964,-0.0803,0,0,0,0,-0.0843,-0.0857,-0.0865,-0.0885,-0.0906,-0.0914,-0.0905,-0.0921,-0.0933,-0.0886,-0.0914,-0.0895,-0.0932,-0.0818,-0.0855,-0.0855,-0.0855,-0.0855,-0.0855,-0.0794,-0.0825,-0.0828,-0.0869,-0.088,-0.0899,-0.0917,-0.0933,-0.0933,-0.0967,-0.095,-0.1026,-0.0908,-0.0968,-0.0968,-0.0968,-0.0969,-0.0969,-0.0969,-0.0772,-0.0774,-0.081,-0.0827,-0.0857,-0.086,-0.0923,-0.0956,-0.1017,-0.1002,-0.1037,-0.0894,-0.0976,-0.0975,-0.0974,-0.0973,-0.0972,-0.0972,-0.0971,-0.0735,-0.0737,-0.0758,-0.0774,-0.08,-0.084,-0.0891,-0.0979,-0.1048,-0.1088,-0.099,-0.1066,-0.1069,-0.1138,-0.1138,-0.1139,-0.1139,-0.1139,-0.1139,-0.0675,-0.07,-0.0688,-0.0718,-0.0722,-0.0767,-0.089,-0.0938,-0.1042,-0.1009,-0.1112,-0.1082,-0.1077,-0.1077,-0.1142,-0.1142,-0.1141,-0.1141,-0.1141,-0.0618,-0.0624,-0.0606,-0.06,-0.0607,-0.0645,-0.0782,-0.087,-0.0926,-0.093,-0.0981,-0.0988,-0.0937,-0.0935,-0.0929,-0.0952,-0.095,-0.0948,0,-0.0559,-0.0566,-0.0525,-0.0497,-0.048,-0.0565,-0.0584,-0.0671,-0.0801,-0.0784,-0.0922,-0.0978,-0.0982,-0.0921,-0.0916,-0.0904,0,0,0,-0.0499,-0.0501,-0.045,-0.0438,-0.0417,-0.048,-0.0589,-0.0607,-0.0775,-0.0767,-0.0895,-0.0909,-0.0981,-0.1151,-0.109,-0.1083,-0.1081,0,0]},{"header":{"parameterUnit":"m.s-1","parameterCategory":2,"la1":30.2992,"la2":30.254,"lo1":-89.0895,"lo2":-89.0443,"dy":0.0025,"dx":0.0025,"nx":19,"ny":19,"refTime":"2026-05-04T03:00:00:Z","depth":"4","parameterNumber":3,"parameterNumberName":"V-component_of_CURRENTS"},"data":[0,0,0,0.0191,0.0194,0.0363,0.0363,0.0495,0.0496,0,0,0,0,0,0,0,0,0,0,0,0.0126,0.0126,0.0191,0.0194,0.0362,0.0364,0.0495,0.0496,0,0,0,0,0,0,0,0,0,0,0,0.0125,0.0126,0.0127,0.0195,0.0362,0.0364,0.0495,0.0394,0,0,0,0,0,0,0,0,0,0,0.0243,0.0216,0.0126,0.0127,0.0196,0.0362,0.0364,0.039,0.04,0.0388,0,0.0398,0,0.0441,0.0501,0.0501,0,0,0,0.0216,0.0208,0.022,0.0127,0.0197,0.0362,0.0293,0.0397,0.0408,0.0401,0.0401,0.0407,0.0443,0.0501,0.0502,0.0496,0.0495,0,0,0.0207,0.0193,0.0213,0.0226,0.0218,0.0287,0.0298,0.0405,0.0423,0.0401,0.041,0.0446,0.0502,0.0502,0.0496,0.0495,0,0,0,0.0165,0.0186,0.02,0.022,0.0253,0.0292,0.0304,0.042,0.0414,0.0412,0.0447,0.0502,0.0503,0.0497,0.0496,0.0468,0,0,0,0.0161,0.016,0.0195,0.0193,0.025,0.0358,0.0316,0.0407,0.0421,0.0447,0.0502,0.0504,0.0498,0.0496,0.0471,0.0425,0,0,0,0.0122,0.0158,0.0162,0.0191,0.0252,0.0357,0.0361,0.0412,0.044,0.0501,0.0504,0.0498,0.0497,0.0473,0.043,0.0456,0,0,0,0.0122,0.0154,0.0162,0.0216,0.0249,0.0316,0.0362,0.0443,0.0494,0.0502,0.0497,0.0496,0.0473,0.0432,0.0457,0.0435,0,0,0,0.0162,0.0159,0.0189,0.02,0.0243,0.0296,0.0332,0.0421,0.0459,0.0462,0.0463,0.047,0.043,0.0456,0.0349,0,0,0,0,0.0202,0.0207,0.023,0.0256,0.0297,0.0297,0.038,0.04,0.0438,0.0478,0.0448,0.0422,0.0441,0.0431,0.0489,0.0489,0.0489,0.0489,0.049,0.0215,0.0225,0.0247,0.0246,0.0269,0.0302,0.0319,0.0342,0.04,0.04,0.0386,0.0358,0.0343,0.0386,0.0386,0.0386,0.0386,0.0386,0.0385,0.0226,0.0225,0.021,0.0231,0.0201,0.021,0.0228,0.0268,0.0297,0.0326,0.0349,0.0381,0.0382,0.0383,0.0383,0.0384,0.0384,0.0384,0.0384,0.0212,0.0207,0.0212,0.0192,0.015,0.0147,0.0131,0.0174,0.0249,0.0261,0.0302,0.0339,0.0362,0.0305,0.0305,0.0305,0.0305,0.0305,0.0305,0.0194,0.0192,0.0181,0.0151,0.0121,0.0083,0.0093,0.0126,0.0197,0.0235,0.0264,0.0331,0.0334,0.0356,0.0303,0.0304,0.0304,0.0304,0.0304,0.0188,0.0183,0.0169,0.0144,0.0075,0.0033,0.0039,0.0101,0.0148,0.0195,0.0245,0.0248,0.0261,0.0265,0.0287,0.0211,0.021,0.021,0,0.0173,0.0172,0.0159,0.0122,0.0058,0.0007,0.0021,0.0058,0.0147,0.0148,0.0169,0.0223,0.0227,0.0239,0.0242,0.0265,0,0,0,0.0156,0.0155,0.0149,0.0128,0.0053,0.0022,0.0021,0.0055,0.0115,0.0154,0.0198,0.0201,0.024,0.0299,0.0326,0.0329,0.0368,0,0]}]]